Location: Mountain Grove
(34.0887°N, 86.6172°W)
Time: 00:52:15
(UTC+00:00)

COSMOS 2455 - Pass Details

Date: 14 July 2020
Orbit: 898 x 911 km, 67.1° (Epoch: 12 August)

Event Time Altitude Azimuth Distance (km) Brightness Sun altitude
Rises 05:09:46 0° 327° (NNW) 3,546 6.9 -33.4°
Reaches altitude 10° 05:12:21 10° 323° (NW) 2,601 5.9 -33.5°
Enters shadow 05:16:26 39° 294° (WNW) 1,345 3.9 -33.7°
